TimeEDT,TemperatureF,Dew PointF,Humidity,Sea Level PressureIn,VisibilityMPH,Wind Direction,Wind SpeedMPH,Gust SpeedMPH,PrecipitationIn,Events,Conditions,WindDirDegrees,DateUTC
7:55 AM,78.6,74.8,88,29.92,10.0,Calm,Calm,-,N/A,,Clear,0,2013-09-23 11:55:00
8:55 AM,80.8,75.6,84,29.94,10.0,SW,4.6,-,N/A,,Partly Cloudy,220,2013-09-23 12:55:00
9:55 AM,82.9,75.7,79,29.95,10.0,SSE,5.8,-,N/A,,Clear,150,2013-09-23 13:55:00
10:55 AM,84.2,75.9,76,29.95,10.0,SSE,5.8,-,N/A,,Clear,150,2013-09-23 14:55:00
11:55 AM,85.1,76.6,76,29.95,10.0,ESE,8.1,-,N/A,,Clear,120,2013-09-23 15:55:00
12:55 PM,84.2,76.3,77,29.95,10.0,ESE,8.1,-,N/A,,Clear,110,2013-09-23 16:55:00
1:55 PM,84.0,75.7,76,29.93,10.0,East,6.9,-,N/A,,Clear,100,2013-09-23 17:55:00
2:42 PM,82.4,75.2,79,29.93,10.0,East,6.9,-,N/A,,Light Drizzle,100,2013-09-23 18:42:00
2:55 PM,82.6,75.2,78,29.94,10.0,East,6.9,-,0.00,,Light Drizzle,100,2013-09-23 18:55:00
2:58 PM,82.6,75.2,78,29.93,10.0,East,6.9,-,0.00,,Light Drizzle,100,2013-09-23 18:58:00
3:00 PM,82.4,75.2,79,29.93,10.0,ESE,6.9,-,N/A,,Clear,110,2013-09-23 19:00:00
3:09 PM,82.4,75.2,79,29.93,10.0,ESE,6.9,-,N/A,Rain-Thunderstorm,Light Rain,120,2013-09-23 19:09:00
3:16 PM,82.4,75.2,79,29.94,8.0,ESE,5.8,-,N/A,Rain-Thunderstorm,Light Rain,120,2013-09-23 19:16:00
3:27 PM,80.6,75.2,84,29.93,5.0,SE,9.2,-,N/A,Rain-Thunderstorm,Thunderstorms and Rain,140,2013-09-23 19:27:00
3:38 PM,80.6,75.2,84,29.94,2.5,SSE,12.7,-,N/A,Rain-Thunderstorm,Heavy Thunderstorms and Rain,160,2013-09-23 19:38:00
3:42 PM,78.8,75.2,89,29.94,1.8,SSE,16.1,-,N/A,Rain,Heavy Rain,160,2013-09-23 19:42:00
3:52 PM,77.0,73.4,89,29.95,1.0,South,15.0,-,N/A,Rain,Heavy Rain,180,2013-09-23 19:52:00
3:58 PM,77.4,73.9,89,29.95,1.2,SSW,9.2,-,0.55,Rain,Heavy Rain,200,2013-09-23 19:58:00
4:03 PM,77.0,73.4,89,29.95,2.0,South,12.7,-,N/A,Rain,Heavy Rain,180,2013-09-23 20:03:00
4:13 PM,77.0,73.4,89,29.95,3.0,South,8.1,-,N/A,Rain,Rain,190,2013-09-23 20:13:00
4:23 PM,77.0,73.4,89,29.94,7.0,South,8.1,-,N/A,Rain,Light Rain,170,2013-09-23 20:23:00
4:48 PM,77.0,73.4,89,29.95,6.0,South,6.9,-,N/A,Rain,Rain,170,2013-09-23 20:48:00
4:58 PM,76.3,73.6,91,29.95,8.0,South,9.2,-,0.25,Rain,Light Rain,170,2013-09-23 20:58:00
5:08 PM,75.2,73.4,94,29.94,7.0,SSE,6.9,-,N/A,Rain,Light Rain,160,2013-09-23 21:08:00
5:18 PM,77.0,73.4,89,29.94,9.0,SSE,8.1,-,N/A,Rain,Light Rain,160,2013-09-23 21:18:00
5:58 PM,76.8,73.6,90,29.95,9.0,South,9.2,-,0.08,Rain,Light Rain,170,2013-09-23 21:58:00
6:08 PM,77.0,73.4,89,29.96,6.0,South,11.5,-,N/A,Rain,Light Rain,170,2013-09-23 22:08:00
6:13 PM,75.2,73.4,94,29.96,7.0,South,12.7,-,N/A,Rain,Light Rain,170,2013-09-23 22:13:00
6:18 PM,75.2,73.4,94,29.96,6.0,South,11.5,-,N/A,Rain,Rain,180,2013-09-23 22:18:00
6:28 PM,75.2,73.4,94,29.97,1.8,SSE,5.8,-,N/A,Rain,Heavy Rain,150,2013-09-23 22:28:00
6:33 PM,75.2,73.4,94,29.97,1.0,SSE,11.5,-,N/A,Rain,Heavy Rain,150,2013-09-23 22:33:00
6:43 PM,75.2,71.6,89,29.97,1.2,SE,9.2,-,N/A,Rain,Light Rain,130,2013-09-23 22:43:00
6:48 PM,75.2,71.6,89,29.97,2.5,SE,11.5,-,N/A,Rain,Light Rain,130,2013-09-23 22:48:00
6:53 PM,73.4,71.6,94,29.97,5.0,SE,10.4,-,N/A,Rain,Light Rain,130,2013-09-23 22:53:00
6:58 PM,74.1,71.4,91,29.97,7.0,SE,9.2,-,0.45,Rain,Light Rain,130,2013-09-23 22:58:00
7:13 PM,73.4,71.6,94,29.97,5.0,SE,10.4,-,N/A,Rain,Rain,140,2013-09-23 23:13:00
7:28 PM,73.4,71.6,94,29.97,5.0,SE,10.4,-,N/A,Rain,Rain,140,2013-09-23 23:28:00
7:58 PM,74.1,71.1,90,29.98,7.0,SSE,10.4,-,0.23,Rain,Light Rain,150,2013-09-23 23:58:00
8:08 PM,75.2,71.6,89,29.98,6.0,SSE,12.7,-,N/A,Rain,Light Rain,150,2013-09-24 00:08:00
8:43 PM,75.2,71.6,89,29.99,4.0,SE,6.9,-,N/A,Rain,Light Rain,140,2013-09-24 00:43:00
8:48 PM,75.2,71.6,89,29.99,5.0,SE,6.9,-,N/A,Rain,Light Rain,140,2013-09-24 00:48:00
8:58 PM,74.8,72.1,91,30.00,5.0,SSE,10.4,-,0.21,Rain,Light Rain,150,2013-09-24 00:58:00
9:03 PM,75.2,71.6,89,30.00,3.0,SSE,12.7,-,N/A,Rain,Rain,160,2013-09-24 01:03:00
9:08 PM,73.4,71.6,94,30.00,3.0,SSE,13.8,-,N/A,Rain,Heavy Rain,150,2013-09-24 01:08:00
9:13 PM,73.4,71.6,94,30.00,2.5,SSE,12.7,-,N/A,Rain,Heavy Rain,150,2013-09-24 01:13:00
9:23 PM,73.4,71.6,94,29.99,3.0,SE,15.0,-,N/A,Rain,Heavy Rain,130,2013-09-24 01:23:00
9:28 PM,73.4,71.6,94,29.99,3.0,SSE,16.1,-,N/A,Rain,Rain,150,2013-09-24 01:28:00
9:38 PM,73.4,71.6,94,29.98,6.0,SSE,16.1,-,N/A,Rain,Light Rain,150,2013-09-24 01:38:00
9:53 PM,73.4,71.6,94,29.98,10.0,SE,15.0,-,N/A,Rain,Light Rain,140,2013-09-24 01:53:00
9:58 PM,74.3,72.0,92,29.98,10.0,SE,13.8,-,0.34,,Light Drizzle,140,2013-09-24 01:58:00
10:03 PM,75.2,71.6,89,29.97,10.0,SE,16.1,-,N/A,,Light Drizzle,140,2013-09-24 02:03:00
10:04 PM,75.2,71.6,89,29.97,10.0,SE,15.0,-,N/A,,Mostly Cloudy,140,2013-09-24 02:04:00
10:09 PM,75.2,73.4,94,29.97,10.0,SE,13.8,-,N/A,,Scattered Clouds,140,2013-09-24 02:09:00
10:44 PM,75.2,73.4,94,29.97,10.0,SE,13.8,-,N/A,,Light Drizzle,140,2013-09-24 02:44:00
10:52 PM,77.0,73.4,89,29.97,10.0,SSE,15.0,-,N/A,,Clear,150,2013-09-24 02:52:00
10:58 PM,77.0,73.4,89,29.97,10.0,SSE,12.7,-,0.00,,Partly Cloudy,150,2013-09-24 02:58:00
11:58 PM,76.8,73.2,89,29.97,10.0,South,10.4,-,N/A,,Partly Cloudy,170,2013-09-24 03:58:00